When you browse on this site, cookies collect data to enhance your experience and personalize the content and advertising you see.
Visit our Privacy Policy to learn more. By continuing to use the site, you agree to this use of cookies and data.
  • en France
  • Liste des pays
  • À 7 jours
  • Température de l'eau
  • Carte météo
  • Widgets météo
  • user-avatar
    Se connecter

    Météo par heure à Koumassi

    Ce jour, 2 Juin, Mardi

    Heure Température Précipitation Vent Pression Humidité
    00:00 +28°C° 0 mm 2 m/s 757 mmHg 86%
    01:00 +28°C° 0 mm 2 m/s 757 mmHg 87%
    02:00 +27°C° 0 mm 3 m/s 757 mmHg 88%
    03:00 +27°C° 0 mm 3 m/s 756 mmHg 89%
    04:00 +27°C° 0 mm 3 m/s 757 mmHg 90%
    05:00 +27°C° 0 mm 2 m/s 757 mmHg 90%
    06:00 +27°C° 0 mm 2 m/s 757 mmHg 90%
    07:00 +29°C° 0 mm 3 m/s 757 mmHg 83%
    08:00 +30°C° 0 mm 3 m/s 757 mmHg 77%
    09:00 +32°C° 0 mm 4 m/s 758 mmHg 70%
    10:00 +33°C° 0 mm 4 m/s 757 mmHg 67%
    11:00 +34°C° 0 mm 4 m/s 757 mmHg 65%
    12:00 +34°C° 0 mm 4 m/s 757 mmHg 62%
    13:00 +34°C° 0.3 mm 4 m/s 756 mmHg 63%
    14:00 +34°C° 0.3 mm 5 m/s 756 mmHg 65%
    15:00 +34°C° 0.3 mm 5 m/s 755 mmHg 66%
    16:00 +33°C° 0 mm 5 m/s 755 mmHg 70%
    17:00 +32°C° 0 mm 5 m/s 755 mmHg 73%
    18:00 +30°C° 0 mm 4 m/s 755 mmHg 77%
    19:00 +29°C° 0 mm 4 m/s 756 mmHg 79%
    20:00 +29°C° 0 mm 3 m/s 756 mmHg 80%
    21:00 +28°C° 0 mm 3 m/s 757 mmHg 82%
    22:00 +28°C° 0 mm 2 m/s 757 mmHg 83%
    23:00 +28°C° 0 mm 2 m/s 757 mmHg 85%

    Demain, 3 Juin, Mercredi

    Heure Température Précipitation Vent Pression Humidité
    00:00 +28°C° 0 mm 1 m/s 757 mmHg 86%
    01:00 +27°C° 0 mm 2 m/s 756 mmHg 87%
    02:00 +27°C° 0 mm 2 m/s 756 mmHg 88%
    03:00 +27°C° 0 mm 2 m/s 756 mmHg 89%
    04:00 +27°C° 0 mm 2 m/s 756 mmHg 89%
    05:00 +27°C° 0 mm 2 m/s 756 mmHg 89%
    06:00 +27°C° 0 mm 2 m/s 757 mmHg 89%
    07:00 +29°C° 0 mm 2 m/s 757 mmHg 82%
    08:00 +30°C° 0 mm 3 m/s 757 mmHg 75%
    09:00 +32°C° 0 mm 4 m/s 757 mmHg 68%
    10:00 +33°C° 0 mm 4 m/s 757 mmHg 64%
    11:00 +34°C° 0 mm 4 m/s 756 mmHg 60%
    12:00 +35°C° 0 mm 5 m/s 756 mmHg 56%
    13:00 +35°C° 0 mm 5 m/s 755 mmHg 56%
    14:00 +35°C° 0 mm 4 m/s 755 mmHg 55%
    15:00 +35°C° 0 mm 4 m/s 754 mmHg 55%
    16:00 +33°C° 0 mm 4 m/s 755 mmHg 61%
    17:00 +32°C° 0 mm 4 m/s 755 mmHg 67%
    18:00 +30°C° 0 mm 4 m/s 755 mmHg 73%
    19:00 +29°C° 0 mm 3 m/s 756 mmHg 76%
    20:00 +29°C° 0 mm 3 m/s 756 mmHg 79%
    21:00 +29°C° 0 mm 2 m/s 756 mmHg 82%
    22:00 +28°C° 0 mm 2 m/s 756 mmHg 83%
    23:00 +28°C° 0 mm 2 m/s 756 mmHg 84%

    Après-demain, 4 Juin, Jeudi

    Heure Température Précipitation Vent Pression Humidité
    00:00 +28°C° 0 mm 2 m/s 756 mmHg 85%
    01:00 +28°C° 0.1 mm 2 m/s 756 mmHg 87%
    02:00 +27°C° 0.1 mm 2 m/s 756 mmHg 89%
    03:00 +27°C° 0.1 mm 2 m/s 756 mmHg 90%
    04:00 +27°C° 0.1 mm 1 m/s 756 mmHg 91%
    05:00 +27°C° 0.1 mm 1 m/s 756 mmHg 91%
    06:00 +27°C° 0.1 mm 1 m/s 757 mmHg 92%
    07:00 +28°C° 0 mm 1 m/s 757 mmHg 83%
    08:00 +30°C° 0 mm 2 m/s 757 mmHg 74%
    09:00 +32°C° 0 mm 2 m/s 758 mmHg 66%
    10:00 +34°C° 0.1 mm 2 m/s 757 mmHg 63%
    11:00 +34°C° 0.1 mm 3 m/s 757 mmHg 60%
    12:00 +35°C° 0.1 mm 3 m/s 757 mmHg 57%
    13:00 +35°C° 0.5 mm 4 m/s 756 mmHg 58%
    14:00 +35°C° 0.5 mm 4 m/s 755 mmHg 59%
    15:00 +34°C° 0.5 mm 4 m/s 755 mmHg 60%
    16:00 +33°C° 0 mm 4 m/s 755 mmHg 65%
    17:00 +32°C° 0 mm 4 m/s 755 mmHg 69%
    18:00 +30°C° 0 mm 4 m/s 755 mmHg 73%
    19:00 +29°C° 0 mm 4 m/s 756 mmHg 75%
    20:00 +29°C° 0 mm 3 m/s 756 mmHg 78%
    21:00 +28°C° 0 mm 3 m/s 756 mmHg 80%
    22:00 +28°C° 0 mm 3 m/s 756 mmHg 81%
    23:00 +28°C° 0 mm 2 m/s 756 mmHg 83%

    5 Juin, Vendredi

    Heure Température Précipitation Vent Pression Humidité
    00:00 +27°C° 0 mm 2 m/s 756 mmHg 84%
    01:00 +27°C° 0 mm 2 m/s 756 mmHg 85%
    02:00 +27°C° 0 mm 2 m/s 756 mmHg 86%
    03:00 +27°C° 0 mm 1 m/s 756 mmHg 87%
    04:00 +27°C° 0 mm 1 m/s 756 mmHg 87%
    05:00 +27°C° 0 mm 1 m/s 757 mmHg 87%
    06:00 +27°C° 0 mm 1 m/s 757 mmHg 87%
    07:00 +28°C° 0 mm 2 m/s 757 mmHg 79%
    08:00 +30°C° 0 mm 2 m/s 758 mmHg 71%
    09:00 +32°C° 0 mm 2 m/s 758 mmHg 63%
    10:00 +34°C° 0 mm 2 m/s 758 mmHg 59%
    11:00 +35°C° 0 mm 3 m/s 757 mmHg 55%
    12:00 +36°C° 0 mm 3 m/s 757 mmHg 50%
    13:00 +36°C° 0 mm 3 m/s 756 mmHg 52%
    14:00 +36°C° 0 mm 4 m/s 756 mmHg 54%
    15:00 +35°C° 0 mm 4 m/s 755 mmHg 55%
    16:00 +34°C° 0.1 mm 4 m/s 755 mmHg 62%
    17:00 +32°C° 0.1 mm 4 m/s 755 mmHg 68%
    18:00 +30°C° 0.1 mm 4 m/s 756 mmHg 75%
    19:00 +30°C° 0 mm 4 m/s 756 mmHg 77%
    20:00 +29°C° 0 mm 3 m/s 756 mmHg 79%
    21:00 +29°C° 0 mm 3 m/s 757 mmHg 81%
    22:00 +28°C° 0 mm 2 m/s 756 mmHg 83%
    23:00 +28°C° 0 mm 2 m/s 756 mmHg 84%

    6 Juin, Samedi

    Heure Température Précipitation Vent Pression Humidité
    00:00 +28°C° 0 mm 2 m/s 756 mmHg 86%
    01:00 +28°C° 0 mm 2 m/s 756 mmHg 87%
    02:00 +28°C° 0 mm 1 m/s 756 mmHg 88%
    03:00 +27°C° 0 mm 1 m/s 756 mmHg 89%
    04:00 +28°C° 0.1 mm 1 m/s 757 mmHg 89%
    05:00 +28°C° 0.1 mm 1 m/s 757 mmHg 89%
    06:00 +28°C° 0.1 mm 1 m/s 757 mmHg 89%
    07:00 +29°C° 0 mm 1 m/s 758 mmHg 80%
    08:00 +31°C° 0 mm 2 m/s 758 mmHg 72%
    09:00 +32°C° 0 mm 2 m/s 759 mmHg 63%
    10:00 +34°C° 0 mm 3 m/s 758 mmHg 59%
    11:00 +35°C° 0 mm 3 m/s 758 mmHg 55%
    12:00 +36°C° 0 mm 4 m/s 757 mmHg 51%
    13:00 +35°C° 0 mm 4 m/s 757 mmHg 53%
    14:00 +35°C° 0 mm 4 m/s 756 mmHg 54%
    15:00 +35°C° 0 mm 4 m/s 755 mmHg 56%
    16:00 +34°C° 0 mm 4 m/s 756 mmHg 61%
    17:00 +32°C° 0 mm 4 m/s 756 mmHg 66%
    18:00 +30°C° 0 mm 3 m/s 756 mmHg 71%
    19:00 +30°C° 0 mm 3 m/s 756 mmHg 74%
    20:00 +29°C° 0 mm 3 m/s 756 mmHg 77%
    21:00 +29°C° 0 mm 3 m/s 756 mmHg 80%
    22:00 +28°C° 0 mm 3 m/s 756 mmHg 82%
    23:00 +28°C° 0 mm 2 m/s 756 mmHg 84%

    7 Juin, Dimanche

    Heure Température Précipitation Vent Pression Humidité
    00:00 +28°C° 0 mm 2 m/s 756 mmHg 86%
    01:00 +27°C° 0 mm 2 m/s 756 mmHg 86%
    02:00 +27°C° 0 mm 2 m/s 756 mmHg 87%
    03:00 +27°C° 0 mm 1 m/s 756 mmHg 88%
    04:00 +27°C° 0.1 mm 1 m/s 756 mmHg 88%
    05:00 +27°C° 0.1 mm 1 m/s 757 mmHg 88%
    06:00 +27°C° 0.1 mm 1 m/s 757 mmHg 88%
    07:00 +28°C° 0.4 mm 2 m/s 757 mmHg 83%
    08:00 +29°C° 0.4 mm 2 m/s 758 mmHg 78%
    09:00 +30°C° 0.4 mm 3 m/s 758 mmHg 74%
    10:00 +31°C° 0.1 mm 3 m/s 758 mmHg 69%
    11:00 +33°C° 0.1 mm 3 m/s 757 mmHg 64%
    12:00 +35°C° 0.1 mm 4 m/s 757 mmHg 58%
    13:00 +34°C° 0.3 mm 4 m/s 756 mmHg 59%
    14:00 +34°C° 0.3 mm 4 m/s 756 mmHg 60%
    15:00 +34°C° 0.3 mm 5 m/s 755 mmHg 61%
    16:00 +33°C° 0 mm 5 m/s 755 mmHg 65%
    17:00 +32°C° 0 mm 4 m/s 755 mmHg 69%
    18:00 +30°C° 0 mm 4 m/s 755 mmHg 73%
    19:00 +29°C° 0 mm 4 m/s 756 mmHg 75%
    20:00 +29°C° 0 mm 4 m/s 756 mmHg 77%
    21:00 +28°C° 0 mm 4 m/s 757 mmHg 79%
    22:00 +28°C° 0 mm 3 m/s 757 mmHg 80%
    23:00 +28°C° 0 mm 3 m/s 756 mmHg 82%
    Voir plus